SQ5DCP-1 Weather Reports


time (UTC)temp
F
wind
direction
speed
knots
gust
knots
rain 1hr
in
rain 24hr
in
rain mn
in
humidity
%
barometer
mb
20210723144055 76 268 0.0 3.5 0.00 0.00 0.00 55 1015.7
20210723143524 75 261 0.0 3.5 0.00 0.00 0.00 57 1015.7
20210723143024 74 23 0.0 0.9 0.00 0.00 0.00 56 1015.8
20210723142524 74 289 0.0 2.6 0.00 0.00 0.00 56 1015.8
20210723142023 74 0.0 0.0 0.00 0.00 0.00 56 1015.9
20210723141553 74 338 0.0 0.9 0.00 0.00 0.00 56 1015.9
20210723141022 74 0.0 0.0 0.00 0.00 0.00 56 1015.9
20210723140522 74 0.0 0.0 0.00 0.00 0.00 55 1015.8
20210723140051 74 0.0 0.0 0.00 0.00 0.00 55 1015.8
20210723135551 74 315 0.0 2.6 0.00 0.00 0.00 55 1015.8
20210723135050 75 296 0.0 3.5 0.00 0.00 0.00 55 1015.8
20210723134550 75 285 0.0 0.9 0.00 0.00 0.00 54 1015.8
20210723134049 76 293 0.0 0.9 0.00 0.00 0.00 52 1015.8
20210723133549 76 306 0.0 4.3 0.00 0.00 0.00 52 1015.8
20210723133018 76 0.0 0.0 0.00 0.00 0.00 52 1015.9
20210723132518 76 0.0 0.0 0.00 0.00 0.00 52 1015.9
20210723132248 76 0.0 0.0 0.00 0.00 0.00 51 1015.9
20210723131536 77 274 0.9 2.6 0.00 0.00 0.00 51 1016.0
20210723131036 78 315 0.0 0.9 0.00 0.00 0.00 51 1016.0
20210723130535 79 315 0.0 0.9 0.00 0.00 0.00 52 1016.0
20210723130034 79 270 0.0 2.6 0.00 0.00 0.00 52 1016.0
20210723125934 79 0.0 0.0 0.00 0.00 0.00 54 1016.1
20210723114546 75 0.0 0.0 0.00 0.00 0.00 58 1016.5
20210723114046 75 225 0.0 2.6 0.00 0.00 0.00 58 1016.5
20210723113545 75 0.0 0.0 0.00 0.00 0.00 58 1016.5
20210723113045 75 0.0 0.0 0.00 0.00 0.00 58 1016.6
20210723112544 75 237 0.9 4.3 0.00 0.00 0.00 58 1016.6
20210723112044 75 225 0.0 2.6 0.00 0.00 0.00 58 1016.6
20210723111543 75 0.0 0.0 0.00 0.00 0.00 58 1016.6
20210723111043 74 0.0 0.0 0.00 0.00 0.00 59 1016.6
20210723110542 74 253 0.0 4.3 0.00 0.00 0.00 59 1016.7
20210723110041 74 243 0.9 6.1 0.00 0.00 0.00 59 1016.8
20210723105540 74 275 0.0 4.3 0.00 0.00 0.00 59 1016.8
20210723105039 74 270 0.0 2.6 0.00 0.00 0.00 60 1016.8
20210723104538 74 266 0.9 8.7 0.00 0.00 0.00 60 1016.8
20210723104038 74 239 0.0 6.1 0.00 0.00 0.00 61 1016.9
20210723103537 74 270 0.0 4.3 0.00 0.00 0.00 61 1017.0
20210723103037 74 254 0.0 3.5 0.00 0.00 0.00 62 1017.0
20210723102538 73 218 0.0 3.5 0.00 0.00 0.00 62 1017.1
20210723102035 73 254 0.0 3.5 0.00 0.00 0.00 62 1017.1
20210723101535 73 187 0.0 2.6 0.00 0.00 0.00 62 1017.1
20210723101034 73 0.0 0.0 0.00 0.00 0.00 62 1017.1
20210723100534 73 0.0 0.0 0.00 0.00 0.00 61 1017.1
20210723100033 72 0.0 0.0 0.00 0.00 0.00 62 1017.2
20210723095533 72 245 0.0 2.6 0.00 0.00 0.00 62 1017.2
20210723095032 72 236 0.0 0.9 0.00 0.00 0.00 63 1017.3
20210723094531 72 285 0.9 6.1 0.00 0.00 0.00 63 1017.3
20210723094031 72 275 0.0 3.5 0.00 0.00 0.00 63 1017.3
20210723093530 72 272 0.0 3.5 0.00 0.00 0.00 63 1017.3
20210723093030 72 292 0.0 3.5 0.00 0.00 0.00 64 1017.3
20210723092529 72 231 0.0 2.6 0.00 0.00 0.00 66 1017.4
20210723092029 72 247 0.9 4.3 0.00 0.00 0.00 66 1017.3
20210723091528 71 303 0.0 0.9 0.00 0.00 0.00 66 1017.3
20210723091027 71 264 0.0 2.6 0.00 0.00 0.00 65 1017.3
20210723090527 71 278 0.0 0.9 0.00 0.00 0.00 65 1017.3
20210723090026 71 258 0.0 2.6 0.00 0.00 0.00 65 1017.4
20210723085526 71 297 0.0 0.9 0.00 0.00 0.00 66 1017.4
20210723085025 70 248 0.0 4.3 0.00 0.00 0.00 66 1017.4
20210723084524 70 270 0.0 2.6 0.00 0.00 0.00 67 1017.4
20210723084024 70 0.0 0.9 0.00 0.00 0.00 67 1017.4
20210723083524 70 315 0.0 0.9 0.00 0.00 0.00 68 1017.4
20210723083023 70 263 0.0 2.6 0.00 0.00 0.00 69 1017.5
20210723082552 69 285 1.7 3.5 0.00 0.00 0.00 70 1017.4
20210723082052 69 264 0.0 2.6 0.00 0.00 0.00 70 1017.5
20210723081551 69 261 0.0 2.6 0.00 0.00 0.00 70 1017.4
20210723081021 69 270 0.9 3.5 0.00 0.00 0.00 71 1017.4
20210723080520 69 248 0.0 0.9 0.00 0.00 0.00 71 1017.4
20210723080020 68 0.0 0.0 0.00 0.00 0.00 72 1017.4
20210723075519 68 0.0 0.0 0.00 0.00 0.00 73 1017.4
20210723075019 68 0.0 2.6 0.00 0.00 0.00 74 1017.5
20210723074549 68 293 0.0 0.9 0.00 0.00 0.00 74 1017.5
20210723074048 68 257 0.0 0.9 0.00 0.00 0.00 75 1017.5
20210723073548 67 203 0.0 0.9 0.00 0.00 0.00 76 1017.4
20210723073047 67 253 0.0 3.5 0.00 0.00 0.00 76 1017.5
20210723072547 67 255 1.7 3.5 0.00 0.00 0.00 76 1017.5
20210723072047 67 264 0.0 2.6 0.00 0.00 0.00 76 1017.5
20210723071546 67 248 0.0 2.6 0.00 0.00 0.00 77 1017.4
20210723071146 67 248 0.9 2.6 0.00 0.00 0.00 77 1017.4
20210723070715 67 239 0.9 2.6 0.00 0.00 0.00 77 1017.4
20210723070045 66 240 0.9 2.6 0.00 0.00 0.00 77 1017.4
20210723065544 66 0.0 0.0 0.00 0.00 0.00 77 1017.4
20210723065044 66 0.0 0.0 0.00 0.00 0.00 77 1017.4
20210723064544 66 0.0 0.0 0.00 0.00 0.00 78 1017.4
20210723064113 66 0.0 0.0 0.00 0.00 0.00 78 1017.4
20210723063543 65 0.0 0.0 0.00 0.00 0.00 78 1017.4
20210723063042 65 0.0 0.0 0.00 0.00 0.00 78 1017.4
20210723062542 65 0.0 0.0 0.00 0.00 0.00 79 1017.4
20210723062111 65 0.0 0.0 0.00 0.00 0.00 79 1017.4
20210723061541 65 0.0 0.0 0.00 0.00 0.00 79 1017.4
20210723061141 65 0.0 0.0 0.00 0.00 0.00 79 1017.4
20210723060540 64 0.0 0.0 0.00 0.00 0.00 79 1017.4
20210723060440 64 0.0 0.0 0.00 0.00 0.00 79 1017.4
20210723055539 64 0.0 0.0 0.00 0.00 0.00 79 1017.4
20210723055109 64 0.0 0.0 0.00 0.00 0.00 80 1017.4
20210723054639 64 0.0 0.0 0.00 0.00 0.00 80 1017.4
20210723054038 64 0.0 0.0 0.00 0.00 0.00 80 1017.4
20210723053538 64 0.0 0.0 0.00 0.00 0.00 80 1017.4
20210723053038 64 0.0 0.0 0.00 0.00 0.00 79 1017.4
20210723052707 64 0.0 0.0 0.00 0.00 0.00 79 1017.4
20210723052037 64 0.0 0.0 0.00 0.00 0.00 79 1017.5
20210723051536 64 248 0.0 2.6 0.00 0.00 0.00 79 1017.5
20210723051036 64 0.0 0.0 0.00 0.00 0.00 79 1017.5
20210723050636 63 0.0 0.0 0.00 0.00 0.00 79 1017.5
20210723050035 63 0.0 0.0 0.00 0.00 0.00 79 1017.6
20210723045535 63 0.0 0.0 0.00 0.00 0.00 79 1017.5
20210723045104 63 0.0 0.0 0.00 0.00 0.00 79 1017.5
20210723044604 63 0.0 0.0 0.00 0.00 0.00 79 1017.6
20210723044034 63 0.0 0.0 0.00 0.00 0.00 79 1017.7
20210723043803 63 0.0 0.0 0.00 0.00 0.00 79 1017.7
20210723043033 63 0.0 0.0 0.00 0.00 0.00 79 1017.7
20210723042532 63 0.0 0.0 0.00 0.00 0.00 79 1017.7
20210723042102 63 0.0 0.0 0.00 0.00 0.00 79 1017.7
20210723041532 63 0.0 0.0 0.00 0.00 0.00 79 1017.7
20210723041031 63 0.0 0.0 0.00 0.00 0.00 80 1017.7
20210723040531 63 0.0 0.0 0.00 0.00 0.00 80 1017.7
20210723040101 63 0.0 0.0 0.00 0.00 0.00 79 1017.7
20210723035530 63 0.0 0.0 0.00 0.00 0.00 80 1017.7
20210723035100 63 0.0 0.0 0.00 0.00 0.00 80 1017.7
20210723034559 63 0.0 0.0 0.00 0.00 0.00 79 1017.7
20210723034029 63 0.0 0.0 0.00 0.00 0.00 79 1017.7
20210723033629 63 0.0 0.0 0.00 0.00 0.00 79 1017.7
20210723033258 63 0.0 0.0 0.00 0.00 0.00 79 1017.7
20210723032558 63 0.0 0.0 0.00 0.00 0.00 79 1017.8
20210723032057 63 0.0 0.0 0.00 0.00 0.00 79 1017.7
20210723031757 63 0.0 0.0 0.00 0.00 0.00 79 1017.7
20210723031027 63 0.0 0.0 0.00 0.00 0.00 79 1017.8
20210723030526 63 0.0 0.0 0.00 0.00 0.00 79 1017.7
20210723030026 63 0.0 0.0 0.00 0.00 0.00 79 1017.7
20210723025956 63 0.0 0.0 0.00 0.00 0.00 79 1017.7
20210723025055 63 0.0 0.0 0.00 0.00 0.00 79 1017.7
20210723024625 63 0.0 0.0 0.00 0.00 0.00 79 1017.7
20210723024455 63 0.0 0.0 0.00 0.00 0.00 79 1017.7
20210723023554 63 0.0 0.0 0.00 0.00 0.00 79 1017.7
20210723023024 63 0.0 0.0 0.00 0.00 0.00 79 1017.8
20210723022553 63 0.0 0.0 0.00 0.00 0.00 79 1017.8
20210723022053 63 0.0 0.0 0.00 0.00 0.00 79 1017.8
20210723021652 63 0.0 0.0 0.00 0.00 0.00 79 1017.8
20210723021252 63 0.0 0.0 0.00 0.00 0.00 79 1017.8
20210723020752 63 0.0 0.0 0.00 0.00 0.00 79 1017.9
20210723020251 63 0.0 0.0 0.00 0.00 0.00 79 1017.9
20210723015551 63 0.0 0.0 0.00 0.00 0.00 79 1017.9
20210723015050 63 0.0 0.0 0.00 0.00 0.00 79 1018.0
20210723014550 63 0.0 0.0 0.00 0.00 0.00 79 1018.0
20210723013549 63 0.0 0.0 0.00 0.00 0.00 79 1018.0
20210723013219 63 0.0 0.0 0.00 0.00 0.00 79 1018.0
20210723012519 63 0.0 0.0 0.00 0.00 0.00 79 1018.1
20210723012218 63 0.0 0.0 0.00 0.00 0.00 80 1018.1
20210723011548 64 0.0 0.0 0.00 0.00 0.00 80 1018.1
20210723011047 64 0.0 0.0 0.00 0.00 0.00 80 1018.0
20210723010747 64 0.0 0.0 0.00 0.00 0.00 80 1018.0
20210723010117 64 0.0 0.0 0.00 0.00 0.00 80 1018.1
20210723005546 64 0.0 0.0 0.00 0.00 0.00 79 1018.1
20210723005146 64 0.0 0.0 0.00 0.00 0.00 79 1018.2
20210723004816 64 0.0 0.0 0.00 0.00 0.00 79 1018.1
20210723004345 64 0.0 0.0 0.00 0.00 0.00 79 1018.1
20210723003745 64 0.0 0.0 0.00 0.00 0.00 79 1018.0
20210723003215 64 0.0 0.0 0.00 0.00 0.00 79 1018.1
20210723002614 64 0.0 0.0 0.00 0.00 0.00 78 1018.0
20210723002314 64 0.0 0.0 0.00 0.00 0.00 78 1018.1
20210723001613 64 0.0 0.0 0.00 0.00 0.00 78 1018.2
20210723001213 64 0.0 0.0 0.00 0.00 0.00 78 1018.0
20210723000913 64 0.0 0.0 0.00 0.00 0.00 78 1018.1
20210723000212 64 0.0 0.0 0.00 0.00 0.00 78 1018.2
20210722235042 64 0.0 0.0 0.00 0.00 0.00 78 1018.2
20210722234611 64 0.0 0.0 0.00 0.00 0.00 78 1018.2
20210722234311 64 0.0 0.0 0.00 0.00 0.00 78 1018.2
20210722233540 64 0.0 0.0 0.00 0.00 0.00 77 1018.2
20210722233040 64 0.0 0.0 0.00 0.00 0.00 77 1018.2
20210722232540 64 0.0 0.0 0.00 0.00 0.00 77 1018.2
20210722232139 64 0.0 0.0 0.00 0.00 0.00 77 1018.2
20210722231609 64 0.0 0.0 0.00 0.00 0.00 77 1018.3
20210722231509 64 0.0 0.0 0.00 0.00 0.00 77 1018.2
20210722230608 64 0.0 0.0 0.00 0.00 0.00 77 1018.2
20210722230108 64 0.0 0.0 0.00 0.00 0.00 77 1018.2
20210722225707 64 0.0 0.0 0.00 0.00 0.00 77 1018.2
20210722225107 64 0.0 0.0 0.00 0.00 0.00 77 1018.2
20210722224737 64 0.0 0.0 0.00 0.00 0.00 76 1018.2
20210722224136 64 0.0 0.0 0.00 0.00 0.00 76 1018.2
20210722223106 64 0.0 0.0 0.00 0.00 0.00 75 1018.2
20210722222535 65 0.0 0.0 0.00 0.00 0.00 75 1018.2
20210722222035 65 0.0 0.0 0.00 0.00 0.00 75 1018.2
20210722221704 65 0.0 0.0 0.00 0.00 0.00 75 1018.1
20210722221034 65 0.0 0.0 0.00 0.00 0.00 74 1018.2
20210722220604 65 0.0 0.0 0.00 0.00 0.00 74 1018.2
20210722220033 65 0.0 0.0 0.00 0.00 0.00 74 1018.2
20210722215703 65 0.0 0.0 0.00 0.00 0.00 74 1018.2
20210722215503 65 0.0 0.0 0.00 0.00 0.00 74 1018.2
20210722214732 65 0.0 0.0 0.00 0.00 0.00 74 1018.2
20210722214032 65 0.0 0.0 0.00 0.00 0.00 74 1018.2
20210722213531 65 0.0 0.0 0.00 0.00 0.00 73 1018.2
20210722213231 65 0.0 0.0 0.00 0.00 0.00 73 1018.2
20210722212530 65 0.0 0.0 0.00 0.00 0.00 73 1018.2
20210722212130 65 0.0 0.0 0.00 0.00 0.00 73 1018.2
20210722211530 65 0.0 0.0 0.00 0.00 0.00 72 1018.3
20210722211059 65 0.0 0.0 0.00 0.00 0.00 72 1018.2
20210722210528 65 0.0 0.0 0.00 0.00 0.00 72 1018.3
20210722210028 65 0.0 0.0 0.00 0.00 0.00 72 1018.2
20210722205628 65 0.0 0.0 0.00 0.00 0.00 71 1018.2
20210722205027 65 0.0 0.0 0.00 0.00 0.00 71 1018.2
20210722204727 65 0.0 0.0 0.00 0.00 0.00 70 1018.2
20210722204056 65 0.0 0.0 0.00 0.00 0.00 70 1018.2
20210722203556 65 0.0 0.0 0.00 0.00 0.00 70 1018.2
20210722203025 66 0.0 0.0 0.00 0.00 0.00 70 1018.2
20210722202625 66 0.0 0.0 0.00 0.00 0.00 70 1018.2
20210722202125 66 0.0 0.0 0.00 0.00 0.00 70 1018.2
20210722201524 66 0.0 0.0 0.00 0.00 0.00 70 1018.2
20210722201124 66 0.0 0.0 0.00 0.00 0.00 70 1018.2
20210722200724 66 0.0 0.0 0.00 0.00 0.00 69 1018.2
20210722200023 66 0.0 0.0 0.00 0.00 0.00 69 1018.2
20210722195553 66 0.0 0.0 0.00 0.00 0.00 69 1018.2
20210722195052 66 0.0 0.0 0.00 0.00 0.00 69 1018.2
20210722194522 66 0.0 0.0 0.00 0.00 0.00 68 1018.2
20210722194222 67 0.0 0.0 0.00 0.00 0.00 68 1018.2
20210722193051 67 0.0 0.0 0.00 0.00 0.00 67 1018.2
20210722192551 67 0.0 0.0 0.00 0.00 0.00 67 1018.2
20210722192020 67 0.0 0.0 0.00 0.00 0.00 67 1018.1
20210722191550 67 0.0 0.0 0.00 0.00 0.00 66 1018.1
20210722191220 67 0.0 0.0 0.00 0.00 0.00 66 1018.1
20210722190519 68 0.0 0.0 0.00 0.00 0.00 65 1018.0
20210722190019 68 0.0 0.0 0.00 0.00 0.00 65 1018.1
20210722185518 68 0.0 0.0 0.00 0.00 0.00 65 1018.0
20210722185218 68 0.0 0.0 0.00 0.00 0.00 65 1018.0
20210722184547 68 0.0 0.0 0.00 0.00 0.00 65 1018.0
20210722184047 68 0.0 0.0 0.00 0.00 0.00 64 1018.0
20210722183547 68 0.0 0.0 0.00 0.00 0.00 64 1018.0
20210722183046 69 0.0 0.0 0.00 0.00 0.00 64 1018.0
20210722182546 69 248 0.0 0.9 0.00 0.00 0.00 63 1018.0
20210722182045 69 278 0.0 2.6 0.00 0.00 0.00 63 1018.0
20210722181545 69 273 0.9 3.5 0.00 0.00 0.00 62 1018.0
20210722181044 69 285 0.0 2.6 0.00 0.00 0.00 62 1018.0
20210722180544 69 315 0.0 0.9 0.00 0.00 0.00 62 1018.0
20210722180044 69 248 0.0 0.9 0.00 0.00 0.00 61 1018.0
20210722175543 70 0.0 0.0 0.00 0.00 0.00 61 1018.0
20210722175043 70 326 0.0 2.6 0.00 0.00 0.00 60 1018.0
20210722174542 70 302 0.0 2.6 0.00 0.00 0.00 60 1018.0
20210722174042 70 318 0.0 4.3 0.00 0.00 0.00 60 1018.0
20210722173542 70 315 0.0 0.9 0.00 0.00 0.00 59 1018.0
20210722173041 71 304 0.0 0.9 0.00 0.00 0.00 59 1018.0
20210722172541 71 293 0.0 0.9 0.00 0.00 0.00 59 1018.1
20210722172040 71 320 0.0 4.3 0.00 0.00 0.00 59 1018.1
20210722171540 71 338 0.0 0.9 0.00 0.00 0.00 59 1018.2
20210722171040 71 284 0.9 6.1 0.00 0.00 0.00 60 1018.2
20210722170539 71 294 0.9 2.6 0.00 0.00 0.00 60 1018.2
20210722170039 71 289 0.0 6.1 0.00 0.00 0.00 61 1018.2
20210722165538 71 276 0.0 4.3 0.00 0.00 0.00 60 1018.2
20210722165038 72 283 1.7 4.3 0.00 0.00 0.00 60 1018.2
20210722164538 72 277 1.7 7.0 0.00 0.00 0.00 60 1018.2
20210722164037 72 258 0.9 3.5 0.00 0.00 0.00 59 1018.2
20210722163537 72 281 0.9 6.1 0.00 0.00 0.00 58 1018.2
20210722163036 73 297 0.0 2.6 0.00 0.00 0.00 57 1018.3
20210722162536 73 295 0.9 3.5 0.00 0.00 0.00 56 1018.3
20210722162036 73 272 0.9 4.3 0.00 0.00 0.00 56 1018.4
20210722161535 74 245 0.9 6.1 0.00 0.00 0.00 56 1018.3
20210722161035 74 242 0.9 6.1 0.00 0.00 0.00 55 1018.3
20210722160604 74 295 0.9 6.1 0.00 0.00 0.00 54 1018.3
20210722160034 74 286 0.9 6.1 0.00 0.00 0.00 52 1018.3
20210722155534 74 293 0.0 4.3 0.00 0.00 0.00 52 1018.3
20210722155033 75 0.0 0.9 0.00 0.00 0.00 51 1018.3
20210722154533 75 264 0.0 2.6 0.00 0.00 0.00 50 1018.2
20210722154032 75 294 0.0 6.1 0.00 0.00 0.00 49 1018.3
20210722153532 76 278 0.0 6.1 0.00 0.00 0.00 48 1018.3
20210722153031 76 291 0.9 3.5 0.00 0.00 0.00 47 1018.3
20210722152531 76 274 0.9 6.1 0.00 0.00 0.00 48 1018.3
20210722152031 76 268 0.0 2.6 0.00 0.00 0.00 48 1018.4
20210722151530 76 313 0.0 7.0 0.00 0.00 0.00 48 1018.4
20210722151030 76 329 0.0 0.9 0.00 0.00 0.00 49 1018.4
20210722150529 75 291 0.9 3.5 0.00 0.00 0.00 49 1018.5
20210722150029 75 272 0.9 6.1 0.00 0.00 0.00 48 1018.5
20210722145529 75 249 0.0 6.1 0.00 0.00 0.00 47 1018.5
20210722145028 76 276 0.9 3.5 0.00 0.00 0.00 45 1018.5